SCP
0 0 0 0 0 0 0 0 0 0 0 0 0 0 0 0 0 0 0 0 0 0 0 0 0 0 0 0 0 0 0 0
0 0 0 0 0 -0 0 0 0 0 0 0 0 0 0 0 0 0 0 0 0 0 0 0 0 0 0 0 0 0 0 0
0 -0 -0 -0 -0 -0 -0 -0 -0 -0 -0 -0 -0 -0 0 0 0 0 0 0 0 0 0 0 0 0 0 0 0 0 0 0
-0 -0 -0 -0 -0 -0 -0 -0 -0 -0 -0 -0 -0 -0 -0 0 0 0 0 0 0 0 0 0 0 0 0 0 0 0 0 0
0 -0 -0 -0 -0 -0 -0 -0 -0 -0 -0 -0 -0 0 0 0 0 0 0 0 0 0 0 0 0 0 0 0 0 0 0 0
0 0 0 0 -0 -0 -0 -0 -0 -0 -0 -0 -0 0 0 0 0 0 0 0 0 0 0 0 0 0 0 0 0 0 0 0
0 0 0 0 0 0 0 0 -0 -0 0 0 0 0 0 0 0 0 0 0 0 0 0 0 0 0 0 0 0 0 0 0
0 0 0 0 0 0 0 0 0 0 0 0 0 0 0 0 0 0 0 0 0 0 0 0 0 0 0 0 0 0 0 0
0 0 0 0 0 0 0 0 0 0 0 0 0 0 0 0 0 0 0 0 0 0 0 0 0 0 0 0 0 0 0 0
0 0 0 0 0 0 0 0 0 0 0 0 0 0 0 0 0 0 0 0 0 0 0 0 0 0 0 0 0 0 0 0
0 0 0 0 0 0 0 0 0 0 0 0 0 0 0 0 0 0 0 0 0 0 0 0 0 0 0 0 0 0 0 0
0 0 0 0 0 0 0 0 0 0 0 0 0 0 -0 0 0 0 0 0 0 0 0 0 0 0 0 0 0 0 0 0
0 0 0 0 0 0 0 0 0 0 0 0 0 0 0 -0 0 -0 -0 -0 0 -0 0 0 0 0 0 0 0 0 0 0
0 0 0 0 0 0 0 0 0 0 0 0 0 0 0 -0 -0 -0 -0 -0 -0 -0 -0 0 0 0 0 0 0 0 0 0
0 0 0 0 0 0 0 0 0 0 0 0 0 0 0 0 0 -0 -0 -0 -0 -0 -0 0 0 0 0 0 0 0 0 0
0 0 0 0 0 0 0 0 0 0 0 0 0 0 0 0 0 0 -0 -0 -0 0 -0 -0 0 0 0 0 0 0 0 0
0 0 0 0 0 0 0 0 0 0 0 0 0 0 0 0 0 -0 -0 -0 -0 -0 -0 0 0 0 0 0 0 0 0 0
0 0 0 0 0 0 0 0 0 0 0 0 0 0 0 0 0 -0 -0 -0 0 -0 -0 -0 0 0 0 0 0 0 0 0
0 0 0 0 0 0 0 0 0 0 0 0 0 0 0 0 0 0 -0 -0 -0 -0 -0 -0 -0 0 0 0 0 0 0 0
0 0 0 0 0 -0 0 0 0 0 0 0 0 0 0 0 0 0 -0 -0 -0 -0 -0 -0 -0 0 0 0 0 0 0 0
Wind_Speed_500mb
20 23 26 30 33 34 35 37 35 32 30 28 29 25 17 18 23 26 31 27 23 24 28 31 39 43 43 40 37 38 39 37
19 21 22 25 27 29 30 30 30 31 31 30 27 25 26 19 20 24 29 31 34 31 31 36 41 46 44 35 42 45 40 37
32 27 23 21 23 26 27 29 30 31 31 32 32 29 26 26 23 22 27 29 34 37 38 38 41 44 44 38 42 46 42 37
38 27 25 22 21 23 24 27 29 30 31 32 32 32 32 28 26 26 26 31 34 39 40 40 40 42 49 47 43 42 44 37
34 30 31 30 25 22 21 25 27 30 32 35 36 35 35 36 31 29 28 29 36 38 41 42 41 42 48 49 49 46 44 35
42 46 38 35 32 28 23 24 26 29 31 32 34 36 37 37 36 32 31 30 32 39 43 46 46 45 46 49 50 45 42 36
50 46 40 39 39 39 33 28 28 31 31 31 33 35 35 37 37 37 32 32 31 35 43 47 46 44 44 45 46 47 41 41
47 45 46 42 43 42 43 35 31 33 36 36 35 37 38 37 38 40 38 32 31 31 40 47 48 44 43 43 46 47 45 40
45 42 41 45 46 44 48 43 36 33 35 38 38 38 39 40 39 39 41 39 33 30 33 43 47 46 44 45 48 47 46 41
49 46 39 43 46 46 52 48 41 35 34 36 38 36 37 40 42 42 43 43 41 34 31 38 44 49 45 47 48 51 49 46
45 47 37 31 34 45 54 50 47 38 35 40 39 40 41 41 42 44 46 47 48 44 36 32 42 48 51 49 48 53 53 51
42 41 38 34 38 44 51 52 52 42 43 43 43 44 45 45 43 45 46 49 49 50 43 35 34 45 52 53 51 54 56 55
44 45 41 39 43 43 58 60 56 48 50 47 46 48 50 50 48 45 46 49 53 53 50 42 34 39 50 56 55 52 57 57
49 48 47 42 42 48 56 65 58 56 57 51 46 47 50 53 53 53 49 49 53 55 56 49 39 35 44 53 55 56 58 56
59 56 56 53 52 50 50 51 50 60 61 53 51 49 50 52 56 59 56 53 53 56 56 56 49 38 35 52 56 60 61 58
68 66 67 63 61 55 55 54 54 60 65 63 62 59 58 59 59 61 61 57 58 57 55 55 53 51 33 43 59 66 70 65
62 66 65 68 71 69 55 52 56 62 69 72 69 65 66 67 70 65 65 63 62 59 57 56 56 47 39 38 48 59 73 76
65 68 71 68 69 69 66 65 64 70 73 74 75 74 74 73 75 79 74 69 64 61 56 55 54 51 46 43 42 53 71 83
69 71 72 75 77 69 60 67 75 77 81 84 85 84 82 80 83 80 81 81 72 62 56 51 50 54 53 50 44 54 78 83
72 71 69 75 79 73 65 66 70 78 87 89 89 90 90 89 89 85 81 81 77 72 65 52 47 54 56 58 64 67 93 92
Wind_Direction_500mb
20 17 15 13 12 9 8 9 10 9 13 13 4 357 339 293 260 249 243 230 225 235 242 247 242 230 241 264 269 271 271 274
358 349 349 353 352 352 352 355 354 355 355 355 355 352 345 330 297 270 251 242 236 230 235 237 244 243 244 241 271 268 267 271
326 315 309 320 333 339 344 345 348 349 347 345 341 340 338 332 320 288 268 254 244 238 230 235 236 245 240 232 255 266 266 267
308 283 283 288 306 320 329 336 340 342 344 340 334 332 331 332 323 314 285 261 249 245 243 238 239 235 237 242 239 257 260 261
307 305 295 278 284 297 313 323 326 327 333 337 336 332 330 330 328 318 306 280 256 247 246 242 239 235 233 242 242 242 248 254
306 298 280 276 272 273 289 307 317 322 325 328 333 333 330 325 324 323 313 301 272 250 244 244 241 240 236 234 237 238 245 246
305 297 280 273 272 264 268 281 302 313 318 320 322 325 328 327 324 320 318 310 295 261 246 243 244 242 240 233 234 234 238 242
305 294 289 284 270 265 260 268 283 304 309 312 313 316 322 325 325 322 318 315 305 283 254 245 241 241 239 233 232 232 233 235
314 304 282 278 270 268 249 256 267 287 298 304 310 316 319 322 322 321 320 318 313 301 274 252 245 238 235 232 231 229 230 228
303 303 287 270 265 256 241 246 256 272 288 298 302 312 323 329 328 323 319 319 315 308 294 266 244 243 235 231 230 228 227 223
301 292 276 273 275 271 245 242 253 263 278 286 290 298 307 316 324 328 322 319 317 311 302 288 254 238 237 232 228 229 225 222
296 294 280 281 277 273 248 247 260 263 268 276 282 287 294 301 308 315 320 317 316 313 305 294 274 240 238 234 229 227 225 223
290 284 277 273 274 270 250 256 258 257 261 269 274 280 287 292 298 303 310 315 315 314 309 299 287 254 236 236 232 226 227 225
295 290 280 281 273 267 263 264 264 256 260 265 268 275 281 288 291 295 300 307 312 312 312 304 295 276 245 237 234 226 225 224
291 288 282 279 279 274 266 263 256 254 257 261 265 271 278 285 288 289 292 298 304 306 308 308 295 283 261 239 231 229 224 220
289 287 283 280 276 275 274 271 260 246 250 255 259 267 276 281 285 286 286 291 295 296 298 297 291 288 278 253 234 227 224 217
292 289 283 278 274 273 271 269 263 252 248 253 258 264 271 279 285 283 284 285 286 287 288 290 285 277 270 258 241 231 229 222
294 291 288 283 279 275 272 267 259 257 255 256 260 263 269 276 282 285 282 282 280 281 282 282 279 266 257 253 244 230 231 230
294 289 288 287 282 283 279 270 265 262 260 260 262 263 267 272 278 279 280 284 282 278 280 276 267 256 250 243 239 224 227 230
292 290 289 285 282 284 284 276 269 262 260 260 260 262 264 268 271 271 274 277 279 281 278 276 258 247 240 235 235 226 219 223
Wind_Speed_850mb
20 23 26 30 33 34 35 37 35 32 30 28 29 25 17 18 23 26 31 27 23 24 28 31 39 43 43 40 37 38 39 37
19 21 22 25 27 29 30 30 30 31 31 30 27 25 26 19 20 24 29 31 34 31 31 36 41 46 44 35 42 45 40 37
32 27 23 21 23 26 27 29 30 31 31 32 32 29 26 26 23 22 27 29 34 37 38 38 41 44 44 38 42 46 42 37
38 27 25 22 21 23 24 27 29 30 31 32 32 32 32 28 26 26 26 31 34 39 40 40 40 42 49 47 43 42 44 37
34 30 31 30 25 22 21 25 27 30 32 35 36 35 35 36 31 29 28 29 36 38 41 42 41 42 48 49 49 46 44 35
42 46 38 35 32 28 23 24 26 29 31 32 34 36 37 37 36 32 31 30 32 39 43 46 46 45 46 49 50 45 42 36
50 46 40 39 39 39 33 28 28 31 31 31 33 35 35 37 37 37 32 32 31 35 43 47 46 44 44 45 46 47 41 41
47 45 46 42 43 42 43 35 31 33 36 36 35 37 38 37 38 40 38 32 31 31 40 47 48 44 43 43 46 47 45 40
45 42 41 45 46 44 48 43 36 33 35 38 38 38 39 40 39 39 41 39 33 30 33 43 47 46 44 45 48 47 46 41
49 46 39 43 46 46 52 48 41 35 34 36 38 36 37 40 42 42 43 43 41 34 31 38 44 49 45 47 48 51 49 46
45 47 37 31 34 45 54 50 47 38 35 40 39 40 41 41 42 44 46 47 48 44 36 32 42 48 51 49 48 53 53 51
42 41 38 34 38 44 51 52 52 42 43 43 43 44 45 45 43 45 46 49 49 50 43 35 34 45 52 53 51 54 56 55
44 45 41 39 43 43 58 60 56 48 50 47 46 48 50 50 48 45 46 49 53 53 50 42 34 39 50 56 55 52 57 57
49 48 47 42 42 48 56 65 58 56 57 51 46 47 50 53 53 53 49 49 53 55 56 49 39 35 44 53 55 56 58 56
59 56 56 53 52 50 50 51 50 60 61 53 51 49 50 52 56 59 56 53 53 56 56 56 49 38 35 52 56 60 61 58
68 66 67 63 61 55 55 54 54 60 65 63 62 59 58 59 59 61 61 57 58 57 55 55 53 51 33 43 59 66 70 65
62 66 65 68 71 69 55 52 56 62 69 72 69 65 66 67 70 65 65 63 62 59 57 56 56 47 39 38 48 59 73 76
65 68 71 68 69 69 66 65 64 70 73 74 75 74 74 73 75 79 74 69 64 61 56 55 54 51 46 43 42 53 71 83
69 71 72 75 77 69 60 67 75 77 81 84 85 84 82 80 83 80 81 81 72 62 56 51 50 54 53 50 44 54 78 83
72 71 69 75 79 73 65 66 70 78 87 89 89 90 90 89 89 85 81 81 77 72 65 52 47 54 56 58 64 67 93 92
Wind_Direction_850mb
20 17 15 13 12 9 8 9 10 9 13 13 4 357 339 293 260 249 243 230 225 235 242 247 242 230 241 264 269 271 271 274
358 349 349 353 352 352 352 355 354 355 355 355 355 352 345 330 297 270 251 242 236 230 235 237 244 243 244 241 271 268 267 271
326 315 309 320 333 339 344 345 348 349 347 345 341 340 338 332 320 288 268 254 244 238 230 235 236 245 240 232 255 266 266 267
308 283 283 288 306 320 329 336 340 342 344 340 334 332 331 332 323 314 285 261 249 245 243 238 239 235 237 242 239 257 260 261
307 305 295 278 284 297 313 323 326 327 333 337 336 332 330 330 328 318 306 280 256 247 246 242 239 235 233 242 242 242 248 254
306 298 280 276 272 273 289 307 317 322 325 328 333 333 330 325 324 323 313 301 272 250 244 244 241 240 236 234 237 238 245 246
305 297 280 273 272 264 268 281 302 313 318 320 322 325 328 327 324 320 318 310 295 261 246 243 244 242 240 233 234 234 238 242
305 294 289 284 270 265 260 268 283 304 309 312 313 316 322 325 325 322 318 315 305 283 254 245 241 241 239 233 232 232 233 235
314 304 282 278 270 268 249 256 267 287 298 304 310 316 319 322 322 321 320 318 313 301 274 252 245 238 235 232 231 229 230 228
303 303 287 270 265 256 241 246 256 272 288 298 302 312 323 329 328 323 319 319 315 308 294 266 244 243 235 231 230 228 227 223
301 292 276 273 275 271 245 242 253 263 278 286 290 298 307 316 324 328 322 319 317 311 302 288 254 238 237 232 228 229 225 222
296 294 280 281 277 273 248 247 260 263 268 276 282 287 294 301 308 315 320 317 316 313 305 294 274 240 238 234 229 227 225 223
290 284 277 273 274 270 250 256 258 257 261 269 274 280 287 292 298 303 310 315 315 314 309 299 287 254 236 236 232 226 227 225
295 290 280 281 273 267 263 264 264 256 260 265 268 275 281 288 291 295 300 307 312 312 312 304 295 276 245 237 234 226 225 224
291 288 282 279 279 274 266 263 256 254 257 261 265 271 278 285 288 289 292 298 304 306 308 308 295 283 261 239 231 229 224 220
289 287 283 280 276 275 274 271 260 246 250 255 259 267 276 281 285 286 286 291 295 296 298 297 291 288 278 253 234 227 224 217
292 289 283 278 274 273 271 269 263 252 248 253 258 264 271 279 285 283 284 285 286 287 288 290 285 277 270 258 241 231 229 222
294 291 288 283 279 275 272 267 259 257 255 256 260 263 269 276 282 285 282 282 280 281 282 282 279 266 257 253 244 230 231 230
294 289 288 287 282 283 279 270 265 262 260 260 262 263 267 272 278 279 280 284 282 278 280 276 267 256 250 243 239 224 227 230
292 290 289 285 282 284 284 276 269 262 260 260 260 262 264 268 271 271 274 277 279 281 278 276 258 247 240 235 235 226 219 223